[[{"header":{"parameterUnit":"m.s-1","parameterCategory":1,"la1":30.2991,"la2":30.254,"lo1":-89.0895,"lo2":-89.0444,"dy":0.0017,"dx":0.0017,"nx":28,"ny":28,"refTime":"2025-04-09T21:00:00:Z","depth":0,"parameterNumber":2,"parameterNumberName":"U-component_of_WINDS"},"data":[0,0,0,0,0,0,0,0,0,0,0,0,0,0,0,0,0,0,0,0,0,0,0,0,0,0,0,0,0,0,0,0,0,0,0,0,0,0,0,0,0,0,0,0,0,0,0,0,0,0,0,0,0,0,0,0,0,0,3.7253,3.7254,0,3.7313,3.7314,3.7315,3.7226,3.7223,3.7219,3.7217,3.7276,3.7281,3.7285,0,0,0,0,0,0,0,0,0,0,0,0,0,3.7059,3.7063,3.7253,3.7254,3.7255,3.7313,3.7314,3.7315,3.7226,3.7222,3.7219,3.7215,3.7275,3.728,3.7285,0,0,0,0,0,0,0,0,0,0,0,0,0,3.7134,3.7064,3.7253,3.7218,3.7215,3.7313,3.7314,3.7315,3.7227,3.7222,3.7218,3.7213,3.7273,3.7279,3.7286,3.7421,0,0,3.7307,3.731,0,0,0,0,0,0,0,0,3.7129,3.7141,3.7222,3.722,3.7218,3.7257,3.7267,3.735,3.7228,3.7222,3.7216,3.7211,3.7274,3.728,3.7301,3.7424,3.7426,3.7307,3.7311,3.7314,3.7316,0,0,0,0,0,0,0,3.7124,3.7138,3.7277,3.7223,3.7221,3.7198,3.7203,3.7283,3.7273,3.7223,3.7216,3.7225,3.7271,3.7295,3.7302,3.7427,3.7307,3.7313,3.7317,3.732,3.7661,3.7666,0,0,0,0,0,0,3.7124,3.7134,3.7275,3.7279,3.7161,3.7205,3.7211,3.7249,3.7272,3.7271,3.7229,3.722,3.7286,3.7294,3.7304,3.7462,3.7314,3.7321,3.7324,3.7656,3.7662,3.7667,0,0,0,0,0,0,3.712,3.7137,3.7272,3.7205,3.722,3.7213,3.7257,3.7253,3.7276,3.7277,3.7274,3.7255,3.7283,3.7294,3.7392,3.7463,3.7324,3.733,3.765,3.7658,3.7665,3.778,0,0,0,0,0,0,3.7115,3.7136,3.7189,3.7207,3.7224,3.7361,3.7261,3.7257,3.7288,3.7278,3.7301,3.73,3.728,3.7383,3.7399,3.7469,3.7335,3.7644,3.7653,3.7662,3.777,3.779,3.7808,0,0,0,0,0,3.7108,3.7219,3.7192,3.7209,3.7289,3.7365,3.7375,3.735,3.7295,3.7346,3.7346,3.7299,3.7452,3.7393,3.7411,3.7485,3.7639,3.7651,3.7662,3.7761,3.7786,3.7808,0,0,0,0,0,0,3.7209,3.722,3.7191,3.731,3.7338,3.735,3.7415,3.7378,3.7422,3.741,3.7377,3.7382,3.7487,3.7495,3.7429,3.7615,3.7536,3.7552,3.7606,3.763,3.7649,3.7644,3.7341,0,0,0,0,0,3.7245,3.7307,3.7313,3.7418,3.7433,3.7422,3.7454,3.7433,3.7459,3.747,3.7477,3.7504,3.7558,3.7594,3.7644,3.777,3.7773,3.783,3.7849,3.7864,3.7878,3.7943,3.7968,3.7705,3.7704,3.7704,0,0,3.7321,3.7334,3.7375,3.7439,3.7457,3.7521,3.7432,3.7504,3.755,3.7481,3.7573,3.758,3.7607,3.7719,3.7769,3.773,3.7951,3.7879,3.7891,3.7896,3.7957,3.7982,3.8004,3.7712,3.7711,3.771,0,0,3.749,3.7508,3.7596,3.7616,3.7645,3.7637,3.7658,3.7676,3.7678,3.777,3.7719,3.7773,3.7867,3.7888,3.7912,3.8088,3.8046,3.8105,3.8205,3.8269,3.829,3.8308,3.8369,3.8392,3.8118,3.8119,3.8119,0,3.758,3.7674,3.7646,3.7721,3.7749,3.769,3.7778,3.7799,3.7843,3.7863,3.7819,3.7934,3.7949,3.8064,3.8107,3.8128,3.815,3.8102,3.8289,3.8307,3.8324,3.8381,3.8405,3.8126,3.8125,3.8124,3.8123,0,3.7782,3.7849,3.7917,3.796,3.7997,3.8078,3.8061,3.8101,3.8075,3.8071,3.8165,3.818,3.8231,3.8257,3.8233,3.8369,3.8343,3.8295,3.8214,3.8356,3.841,3.8432,3.8135,3.8133,3.8131,3.8129,0,0,3.8018,3.8044,3.8069,3.8088,3.8115,3.8165,3.8243,3.8293,3.8327,3.8359,3.8422,3.8502,3.8457,3.8483,3.8461,3.8518,3.8654,3.8462,3.8462,3.8496,3.8802,3.8838,3.8864,3.8626,3.8631,3.8634,3.8799,0,3.8186,3.8321,3.8297,3.8428,3.8487,3.8431,3.8498,3.8521,3.8519,3.8568,3.8565,3.8622,3.8559,3.8574,3.8628,3.8626,3.8715,3.8614,3.8684,3.8687,3.8678,3.8892,3.8931,3.9086,3.882,3.8824,3.8826,0,3.8401,3.844,3.8577,3.8593,3.8617,3.8678,3.8721,3.877,3.8794,3.8788,3.8817,3.8784,3.8859,3.8779,3.8882,3.8814,3.8841,3.8844,3.885,3.8854,3.8765,3.8902,3.9135,3.9158,3.886,3.8857,3.8855,0,3.8557,3.8645,3.8737,3.8755,3.8776,3.882,3.8831,3.8851,3.8882,3.8919,3.8938,3.8984,3.9009,3.9044,3.9023,3.8967,3.9129,3.9047,3.9125,3.9126,3.9162,3.916,3.9402,3.9181,3.9181,3.918,3.918,0,3.8747,3.8833,3.8808,3.8865,3.8958,3.8929,3.9022,3.9025,3.9043,3.9099,3.9053,3.9105,3.9075,3.9126,3.911,3.9197,3.9209,3.9205,3.9199,3.9209,3.9209,3.9225,3.9213,3.9187,3.9185,3.9184,3.9183,0,3.8938,3.8925,3.9022,3.9033,3.9038,3.9107,3.9116,3.9168,3.9162,3.9233,3.9247,3.9237,3.9294,3.9277,3.9338,3.9327,3.9437,3.9418,3.9429,3.9424,3.9502,3.9494,3.9762,3.9795,3.9555,3.9557,3.9559,0,3.906,3.9124,3.9142,3.9176,3.9191,3.9246,3.9277,3.925,3.9284,3.9316,3.9364,3.9416,3.9457,3.9549,3.9547,3.9593,3.9574,3.9665,3.9581,3.9587,3.9574,3.957,3.9575,3.9681,3.9684,3.9686,3.9688,0,3.9277,3.9267,3.9314,3.9358,3.9397,3.943,3.946,3.949,3.9464,3.9505,3.9562,3.9594,3.9655,3.9707,3.9749,3.9758,3.9719,3.9715,3.9735,3.9745,3.9748,3.9745,3.9473,3.9709,3.9707,3.9705,3.9704,3.9703,3.9436,3.949,3.9511,3.9564,3.9583,3.9611,3.966,3.966,3.9707,3.9755,3.9736,3.9802,3.9822,3.9873,3.9888,3.9938,3.9903,3.9933,3.994,3.9948,3.9957,3.974,3.9946,3.9945,3.9944,3.9944,3.9943,0,3.965,3.966,3.9709,3.9751,3.9793,3.9752,3.9782,3.9819,3.9877,3.99,3.994,4.0005,4.0055,4.0056,4.0102,4.0141,4.0124,4.0154,4.015,4.0153,3.9986,3.9964,4.0167,4.0167,4.0167,4.0167,4.0167,4.0167,3.9766,3.9854,3.9846,3.9943,3.9952,4.0016,4.0036,4.0061,4.0078,4.0153,4.0194,4.0194,4.0207,4.0254,4.0297,4.0295,4.0314,4.0351,4.0343,4.0187,4.0165,4.0144,4.0122,4.0355,4.0355,4.0505,4.0506,4.0507]},{"header":{"parameterUnit":"m.s-1","parameterCategory":1,"la1":30.2991,"la2":30.254,"lo1":-89.0895,"lo2":-89.0444,"dy":0.0017,"dx":0.0017,"nx":28,"ny":28,"refTime":"2025-04-09T21:00:00:Z","depth":0,"parameterNumber":3,"parameterNumberName":"V-component_of_WINDS"},"data":[0,0,0,0,0,0,0,0,0,0,0,0,0,0,0,0,0,0,0,0,0,0,0,0,0,0,0,0,0,0,0,0,0,0,0,0,0,0,0,0,0,0,0,0,0,0,0,0,0,0,0,0,0,0,0,0,0,0,-1.2068,-1.2067,0,-1.1982,-1.1981,-1.198,-1.1908,-1.1907,-1.1907,-1.1906,-1.1812,-1.181,-1.1808,0,0,0,0,0,0,0,0,0,0,0,0,0,-1.2164,-1.2162,-1.2068,-1.2067,-1.2066,-1.1982,-1.1981,-1.198,-1.1908,-1.1907,-1.1906,-1.1905,-1.1812,-1.181,-1.1808,0,0,0,0,0,0,0,0,0,0,0,0,0,-1.2105,-1.2162,-1.2068,-1.202,-1.2015,-1.1983,-1.1981,-1.198,-1.1908,-1.1907,-1.1906,-1.1905,-1.1813,-1.181,-1.1808,-1.1814,0,0,-1.18,-1.1798,0,0,0,0,0,0,0,0,-1.2108,-1.2101,-1.2028,-1.2023,-1.2018,-1.1955,-1.198,-1.1924,-1.1909,-1.1949,-1.1906,-1.1904,-1.186,-1.1853,-1.1839,-1.181,-1.1806,-1.1799,-1.1798,-1.1797,-1.1796,0,0,0,0,0,0,0,-1.2112,-1.2104,-1.2034,-1.2027,-1.2021,-1.2001,-1.1991,-1.1969,-1.1912,-1.1945,-1.194,-1.1931,-1.1857,-1.1842,-1.1837,-1.1804,-1.1799,-1.1797,-1.1795,-1.1794,-1.1775,-1.1776,0,0,0,0,0,0,-1.2125,-1.2108,-1.2037,-1.2031,-1.2061,-1.2,-1.1989,-1.1976,-1.1912,-1.1901,-1.1932,-1.1928,-1.1847,-1.184,-1.1833,-1.1836,-1.1797,-1.1794,-1.1793,-1.1774,-1.1776,-1.1777,0,0,0,0,0,0,-1.2127,-1.2119,-1.204,-1.2068,-1.2057,-1.2,-1.1985,-1.1975,-1.1961,-1.1902,-1.189,-1.1928,-1.1846,-1.1837,-1.182,-1.1832,-1.1793,-1.179,-1.1773,-1.1775,-1.1776,-1.1844,0,0,0,0,0,0,-1.213,-1.212,-1.2123,-1.2069,-1.2056,-1.203,-1.1986,-1.1974,-1.1957,-1.1951,-1.1895,-1.1885,-1.1845,-1.1824,-1.1817,-1.1828,-1.1788,-1.1771,-1.1774,-1.1776,-1.184,-1.1847,-1.1854,0,0,0,0,0,-1.2134,-1.2144,-1.2124,-1.2116,-1.2059,-1.2031,-1.2023,-1.1978,-1.1958,-1.196,-1.1922,-1.1887,-1.1832,-1.1823,-1.1815,-1.1825,-1.177,-1.1773,-1.1775,-1.1837,-1.1846,-1.1854,0,0,0,0,0,0,-1.2199,-1.2136,-1.2113,-1.2107,-1.2075,-1.2019,-1.202,-1.1989,-1.1961,-1.1956,-1.19,-1.1888,-1.1877,-1.1849,-1.184,-1.1827,-1.1797,-1.1797,-1.1846,-1.1854,-1.1861,-1.1868,-1.1786,0,0,0,0,0,-1.2214,-1.2199,-1.2143,-1.2143,-1.2129,-1.2078,-1.2064,-1.2032,-1.1996,-1.1982,-1.1943,-1.1907,-1.1882,-1.1866,-1.184,-1.1836,-1.1822,-1.1838,-1.1845,-1.1851,-1.1852,-1.1847,-1.1854,-1.1785,-1.1785,-1.1785,0,0,-1.2242,-1.2206,-1.2199,-1.2156,-1.2127,-1.2111,-1.2067,-1.2051,-1.2038,-1.1978,-1.1961,-1.1931,-1.1888,-1.1877,-1.187,-1.1853,-1.1868,-1.1854,-1.1859,-1.1857,-1.1851,-1.1857,-1.1863,-1.1787,-1.1786,-1.1786,0,0,-1.2286,-1.2257,-1.2254,-1.2227,-1.2186,-1.2152,-1.2151,-1.21,-1.2079,-1.206,-1.2015,-1.1998,-1.1956,-1.1927,-1.1907,-1.194,-1.1906,-1.1933,-1.1968,-1.1964,-1.197,-1.1974,-1.1986,-1.1991,-1.1934,-1.1935,-1.1935,0,-1.2326,-1.2302,-1.2256,-1.2244,-1.2226,-1.2173,-1.2169,-1.2144,-1.2095,-1.2083,-1.2065,-1.2012,-1.1979,-1.1961,-1.1969,-1.1955,-1.1951,-1.1939,-1.1973,-1.1977,-1.1981,-1.1991,-1.1996,-1.1938,-1.1938,-1.1937,-1.1937,0,-1.2353,-1.2337,-1.2339,-1.2296,-1.2278,-1.2269,-1.2221,-1.2207,-1.2177,-1.2145,-1.2126,-1.2085,-1.205,-1.2043,-1.2012,-1.202,-1.2011,-1.1984,-1.1952,-1.1992,-1.2,-1.2004,-1.1943,-1.1942,-1.1941,-1.194,0,0,-1.2435,-1.2368,-1.2369,-1.2349,-1.23,-1.2286,-1.2274,-1.2242,-1.2231,-1.2199,-1.2188,-1.2154,-1.2129,-1.2106,-1.2071,-1.2068,-1.2097,-1.2041,-1.2039,-1.2053,-1.2103,-1.2124,-1.2129,-1.2074,-1.2075,-1.2075,-1.2106,0,-1.2471,-1.245,-1.2409,-1.2401,-1.2385,-1.2335,-1.2325,-1.2293,-1.2262,-1.2242,-1.2207,-1.2184,-1.2153,-1.2139,-1.2133,-1.2095,-1.2106,-1.2092,-1.2061,-1.2061,-1.2074,-1.2134,-1.2156,-1.2187,-1.211,-1.211,-1.211,0,-1.251,-1.2483,-1.2474,-1.2427,-1.2418,-1.241,-1.2377,-1.236,-1.2321,-1.2299,-1.2275,-1.2237,-1.2221,-1.2192,-1.2168,-1.216,-1.2144,-1.2124,-1.2124,-1.2119,-1.2088,-1.213,-1.2196,-1.2201,-1.2115,-1.2115,-1.2115,0,-1.2571,-1.2533,-1.2522,-1.2507,-1.2451,-1.2446,-1.2422,-1.2383,-1.2366,-1.2336,-1.2325,-1.2293,-1.2275,-1.225,-1.2205,-1.2188,-1.2186,-1.2153,-1.2165,-1.2167,-1.2167,-1.2168,-1.2231,-1.2158,-1.2158,-1.2158,-1.2158,0,-1.2615,-1.2611,-1.2549,-1.2543,-1.2537,-1.2489,-1.2483,-1.2454,-1.242,-1.2406,-1.236,-1.2347,-1.2288,-1.2268,-1.2232,-1.2218,-1.221,-1.219,-1.218,-1.2194,-1.2197,-1.2183,-1.218,-1.2159,-1.2159,-1.2158,-1.2158,0,-1.2682,-1.2641,-1.2626,-1.2575,-1.2562,-1.256,-1.2515,-1.2506,-1.2473,-1.2455,-1.2448,-1.2396,-1.2369,-1.2322,-1.2282,-1.2257,-1.225,-1.2234,-1.2264,-1.2258,-1.2273,-1.2273,-1.233,-1.2335,-1.2259,-1.226,-1.2261,0,-1.2713,-1.2709,-1.2659,-1.2647,-1.2626,-1.2607,-1.259,-1.2542,-1.2526,-1.2483,-1.2479,-1.245,-1.2424,-1.2384,-1.2341,-1.2309,-1.2292,-1.2314,-1.2287,-1.2301,-1.2292,-1.2293,-1.2292,-1.232,-1.2321,-1.2322,-1.2323,0,-1.2772,-1.2752,-1.2731,-1.2703,-1.2685,-1.266,-1.2632,-1.2624,-1.2569,-1.2553,-1.2528,-1.2508,-1.2468,-1.2439,-1.2402,-1.2374,-1.2339,-1.2332,-1.2333,-1.2347,-1.2365,-1.2356,-1.2281,-1.2331,-1.233,-1.233,-1.2329,-1.2329,-1.2822,-1.2817,-1.2781,-1.2759,-1.2733,-1.2708,-1.2698,-1.2664,-1.2643,-1.2608,-1.258,-1.2556,-1.2517,-1.2464,-1.2439,-1.2418,-1.2402,-1.2404,-1.2404,-1.2405,-1.2411,-1.2369,-1.2411,-1.2411,-1.2411,-1.241,-1.241,0,-1.2879,-1.2854,-1.2834,-1.2798,-1.278,-1.2751,-1.2719,-1.2705,-1.2686,-1.2654,-1.263,-1.26,-1.2572,-1.2527,-1.2495,-1.2487,-1.247,-1.248,-1.248,-1.2474,-1.2427,-1.243,-1.2494,-1.2494,-1.2494,-1.2494,-1.2494,-1.2494,-1.2907,-1.2897,-1.2873,-1.2849,-1.2822,-1.2801,-1.2785,-1.2761,-1.2735,-1.2705,-1.2682,-1.2654,-1.2616,-1.2581,-1.2553,-1.254,-1.2531,-1.2546,-1.2528,-1.2485,-1.2477,-1.247,-1.2472,-1.2544,-1.2544,-1.2576,-1.2577,-1.2577]}]]